TimeEDT,TemperatureF,Dew PointF,Humidity,Sea Level PressureIn,VisibilityMPH,Wind Direction,Wind SpeedMPH,Gust SpeedMPH,PrecipitationIn,Events,Conditions,WindDirDegrees,DateUTC
12:53 AM,78.1,73.9,87,30.04,10.0,East,6.9,-,N/A,,Partly Cloudy,100,2013-10-04 04:53:00
1:53 AM,77.0,73.0,88,30.03,10.0,East,4.6,-,N/A,,Clear,80,2013-10-04 05:53:00
2:53 AM,75.9,73.0,91,30.01,10.0,East,4.6,-,N/A,,Clear,90,2013-10-04 06:53:00
3:53 AM,75.9,73.0,91,30.01,10.0,East,5.8,-,N/A,,Clear,80,2013-10-04 07:53:00
4:53 AM,75.9,73.0,91,30.00,10.0,ESE,5.8,-,N/A,,Clear,110,2013-10-04 08:53:00
5:53 AM,75.9,73.0,91,30.01,10.0,East,5.8,-,N/A,,Clear,100,2013-10-04 09:53:00
6:53 AM,75.0,73.0,94,30.02,10.0,East,4.6,-,N/A,,Clear,80,2013-10-04 10:53:00
7:53 AM,75.9,73.0,91,30.03,10.0,East,5.8,-,N/A,,Clear,80,2013-10-04 11:53:00
8:53 AM,78.1,73.0,84,30.06,10.0,East,5.8,-,N/A,,Clear,100,2013-10-04 12:53:00
9:53 AM,81.0,73.0,77,30.07,10.0,East,9.2,-,N/A,,Clear,90,2013-10-04 13:53:00
10:53 AM,84.0,71.1,65,30.07,10.0,SE,9.2,-,N/A,,Partly Cloudy,130,2013-10-04 14:53:00
11:53 AM,87.1,70.0,57,30.07,10.0,ESE,9.2,-,N/A,,Clear,110,2013-10-04 15:53:00
12:53 PM,87.1,69.1,55,30.05,10.0,SE,5.8,-,N/A,,Clear,130,2013-10-04 16:53:00
1:53 PM,89.1,69.1,52,30.02,10.0,Calm,Calm,-,N/A,,Scattered Clouds,0,2013-10-04 17:53:00
2:53 PM,88.0,68.0,51,30.01,10.0,WNW,6.9,-,N/A,,Partly Cloudy,300,2013-10-04 18:53:00
3:53 PM,86.0,73.0,65,29.99,10.0,West,10.4,-,N/A,,Partly Cloudy,280,2013-10-04 19:53:00
4:53 PM,84.9,73.0,67,29.99,10.0,West,6.9,-,N/A,,Partly Cloudy,260,2013-10-04 20:53:00
5:53 PM,86.0,70.0,59,29.99,10.0,NNW,5.8,-,N/A,,Mostly Cloudy,330,2013-10-04 21:53:00
6:53 PM,84.9,69.1,59,29.99,10.0,ENE,3.5,-,N/A,,Clear,70,2013-10-04 22:53:00
7:53 PM,82.9,69.1,63,29.99,10.0,Calm,Calm,-,N/A,,Clear,0,2013-10-04 23:53:00
8:53 PM,81.0,69.1,67,30.01,10.0,ENE,3.5,-,N/A,,Clear,60,2013-10-05 00:53:00
9:53 PM,80.1,69.1,69,30.03,10.0,NNE,3.5,-,N/A,,Clear,30,2013-10-05 01:53:00
10:53 PM,80.1,72.0,76,30.05,10.0,ENE,8.1,-,N/A,,Mostly Cloudy,70,2013-10-05 02:53:00
11:53 PM,79.0,70.0,74,30.06,10.0,East,5.8,-,N/A,,Clear,100,2013-10-05 03:53:00